Regional Weather Roundup
Issued by NWS

Home | Current Version | Previous Version | Text Only | Print | Product List | Glossary Off
Versions: 1 2 3 4 5 6 7 8 9 10 11 12 13 14 15 16 17 18 19 20 21 22 23 24 25 26 27 28 29 30 31 32 33 34 35 36 37 38 39 40 41 42 43 44 45 46 47 48 49 50

125
ASUS43 KLSX 201057
RWRMO

WEATHER SUMMARY FOR MISSOURI
NATIONAL WEATHER SERVICE SPRINGFIELD MO
500 AM CST TUE FEB 20 2018

NOTE: "FAIR" INDICATES FEW OR NO CLOUDS BELOW 12,000 FEET WITH NO
       SIGNIFICANT WEATHER AND/OR OBSTRUCTIONS TO VISIBILITY.
       CURRENT SKY AND/OR WEATHER CONDITIONS ARE NOT AVAILABLE FOR
       CHILLICOTHE AND FARMINGTON.

MOZ001>031-035>038-043-044-053-054-201200-
...NORTHERN AND WESTERN MISSOURI...

CITY           SKY/WX    TMP DP  RH WIND       PRES   REMARKS
KANSAS CTY INT FRZ DRZL  29  28  96 NW9       29.85R FOG     WCI  20
LEE`S SUMMIT   CLOUDY    31  31 100 NW9       29.85R FOG     WCI  23
ST JOSEPH      CLOUDY    29  29 100 N12       29.87S WCI  19
CHILLICOTHE      N/A     33  32  96 VRB7      29.85R WCI  27

$$
MOZ066>068-077>081-088>096-101>105-201200-
...SOUTHWEST MISSOURI...

CITY           SKY/WX    TMP DP  RH WIND       PRES   REMARKS
SPRINGFIELD    CLOUDY    67  60  78 S20G35    29.83S
JOPLIN         PTCLDY    65  61  87 S20G30    29.79S

$$
MOZ032>034-039>042-045>050-055>058-069>072-201200-
...CENTRAL MISSOURI...

CITY           SKY/WX    TMP DP  RH WIND       PRES   REMARKS
COLUMBIA       NOT AVBL
JEFFERSON CITY CLOUDY    68  58  70 S13       29.81R
ROLLA          CLOUDY    67  58  72 S22G33    29.86R
SEDALIA        CLOUDY    42  42 100 N5        29.82R
WARRENSBURG    CLOUDY    36  34  93 N3        29.82R

$$
MOZ051-052-059>065-201200-
...EAST CENTRAL MISSOURI...

CITY           SKY/WX    TMP DP  RH WIND       PRES   REMARKS
ST LOUIS INTL  CLOUDY    69  57  65 S18G25    29.86R

$$
MOZ072>076-082>087-097>100-106>115-201200-
...SOUTH CENTRAL AND SOUTHEAST MISSOURI...

CITY           SKY/WX    TMP DP  RH WIND       PRES   REMARKS
CAPE GIRARDEAU CLOUDY    67  59  75 S18G25    30.01R
POPLAR BLUFF   MOCLDY    66  61  84 S14G23    30.00R
WEST PLAINS    CLOUDY    67  57  70 S17G29    29.95R

$$



USA.gov is the U.S. government's official web portal to all federal, state and local government web resources and services.